Temperature
5 4 4 5 6 7 7 7 7 7 9 9 8 9 9 10 10 10 10 10 11 11 11 12 12 12 12 12 12 12 12 12 12 12 12 12 12 12 12 12 12 12 12 12
4 4 5 6 6 6 6 6 6 7 8 9 8 8 8 9 9 10 10 10 10 10 11 11 11 11 11 11 12 11 11 12 12 12 12 12 12 12 12 11 11 11 11 11
4 5 6 6 6 6 6 6 6 6 7 8 8 8 8 8 9 9 9 10 10 10 10 11 11 11 11 11 11 11 11 11 11 11 11 11 11 11 11 11 11 11 11 11
4 5 6 6 6 6 6 7 7 7 6 6 7 6 7 7 7 7 8 8 9 9 10 10 10 10 10 11 11 11 11 11 11 11 11 11 11 11 11 11 11 11 10 10
3 4 5 5 5 6 5 7 6 6 5 5 6 5 6 6 6 7 7 8 8 8 9 9 10 10 10 10 10 10 10 10 10 10 10 10 11 11 11 10 10 10 10 10
3 5 5 5 6 6 6 6 5 5 4 4 5 5 5 5 6 6 6 7 7 8 8 9 9 9 9 9 9 9 9 10 10 10 10 10 10 10 10 10 10 10 10 10
2 4 4 5 5 5 5 4 4 4 4 4 5 5 5 6 6 6 6 6 7 7 7 8 8 8 9 9 9 9 9 9 9 9 9 9 10 10 10 10 10 10 9 9
1 2 3 4 4 4 4 4 3 3 4 4 5 5 5 5 5 6 6 6 6 6 7 7 8 8 8 8 8 8 8 9 9 9 9 9 9 9 9 9 9 9 9 9
1 2 3 4 4 4 4 3 4 3 2 3 4 4 5 5 4 4 4 4 4 5 6 6 7 7 7 8 8 8 8 8 8 8 9 9 9 9 9 9 9 9 9 8
1 1 2 3 4 4 4 4 3 2 3 3 4 4 4 4 3 3 3 3 3 4 5 5 6 6 6 7 7 7 7 8 8 8 8 8 8 8 8 8 8 8 8 8
1 0 1 1 2 2 3 3 2 2 2 3 3 4 4 3 3 3 2 3 3 3 4 4 5 5 5 6 6 6 7 7 7 7 7 8 8 8 7 7 7 7 7 7
0 -1 -1 0 1 2 2 2 2 2 2 2 2 3 3 2 2 2 2 2 3 3 3 4 4 4 4 5 5 6 6 6 6 7 7 7 7 7 7 7 7 7 7 7
0 -1 -1 0 1 1 1 1 1 1 1 1 2 3 2 2 2 2 2 2 2 2 2 3 3 3 4 4 4 5 5 5 6 6 6 7 7 7 7 7 6 6 6 6
1 -2 -1 -0 -0 -1 -0 0 1 1 1 1 1 2 2 1 1 1 1 1 1 2 2 2 2 2 3 3 4 4 5 5 5 5 6 6 6 6 6 6 6 6 6 6
-1 -2 -2 -1 -0 -0 0 0 0 0 1 1 1 1 1 0 -0 0 0 1 1 1 1 1 1 2 2 3 3 3 4 4 4 5 5 5 5 5 5 5 5 5 5 5
-3 -2 -2 -1 0 0 -0 0 0 0 0 0 0 0 0 -0 -0 -0 -0 -0 -0 -0 0 1 1 1 2 2 2 3 3 4 4 4 4 5 5 5 5 5 5 5 5 5
-3 -3 -2 -2 -1 -0 -1 -1 -1 -1 -1 -1 -0 -0 -1 -1 -1 -1 -1 -1 -1 -1 -1 0 1 1 1 2 2 2 3 3 3 3 3 4 4 4 4 4 4 4 4 4
-3 -3 -3 -3 -2 -2 -1 -1 -1 -1 -2 -2 -1 -2 -2 -1 -1 -1 -1 -1 -1 -1 -1 -0 0 0 1 1 1 2 2 2 2 2 3 3 3 3 3 3 4 4 4 4
-3 -3 -4 -4 -3 -2 -1 -1 -2 -2 -2 -2 -2 -2 -2 -2 -1 -1 -1 -1 -1 -1 -1 -1 -0 0 1 1 1 1 1 2 2 2 2 2 3 3 3 3 3 3 3 3
-4 -4 -4 -4 -3 -2 -2 -2 -2 -2 -2 -2 -2 -3 -3 -2 -3 -2 -2 -2 -2 -2 -1 -1 -0 0 0 1 1 1 1 1 1 1 1 2 2 2 2 2 2 2 2 2
-4 -5 -5 -4 -4 -3 -3 -3 -2 -2 -2 -3 -3 -3 -3 -3 -3 -2 -2 -2 -2 -2 -1 -1 -1 -0 0 0 0 0 0 1 1 1 1 1 1 1 2 2 2 2 2 2
-5 -5 -5 -5 -4 -3 -3 -3 -3 -3 -3 -3 -3 -3 -3 -3 -3 -3 -3 -3 -2 -2 -2 -2 -1 -1 -0 -0 -0 -0 -0 0 0 0 0 0 1 1 1 1 1 1 1 1
-5 -5 -5 -5 -4 -3 -3 -3 -3 -3 -3 -3 -3 -3 -3 -3 -3 -3 -3 -3 -3 -3 -2 -2 -2 -1 -1 -1 -1 -1 -1 -1 -1 -0 -0 -0 0 0 0 0 1 1 0 0
-6 -5 -6 -6 -5 -4 -3 -3 -3 -3 -3 -3 -3 -3 -3 -3 -3 -4 -4 -4 -4 -3 -3 -3 -2 -2 -2 -2 -2 -1 -1 -1 -1 -1 -1 -1 -1 -0 -0 -0 -0 -0 -0 -0
-5 -6 -6 -6 -5 -4 -4 -3 -3 -3 -3 -3 -3 -3 -4 -4 -4 -4 -4 -4 -4 -4 -4 -3 -3 -3 -3 -2 -2 -2 -2 -2 -1 -1 -1 -1 -1 -1 -1 -1 -1 -1 -1 -1
-6 -6 -6 -5 -5 -5 -4 -3 -3 -4 -4 -4 -4 -4 -4 -4 -4 -4 -4 -4 -4 -4 -4 -4 -4 -3 -3 -3 -3 -2 -2 -2 -2 -2 -2 -2 -2 -1 -1 -1 -2 -2 -2 -1
Wind_Speed
1 2 4 5 5 3 3 3 3 4 2 2 5 5 4 1 3 3 3 4 4 4 3 4 5 6 6 6 6 6 7 7 7 6 6 5 5 4 4 4 7 8 9 9
1 4 5 2 2 1 2 3 3 4 4 3 5 5 3 2 3 5 5 4 4 2 1 3 4 5 6 7 7 7 7 7 7 6 5 4 4 3 3 3 5 8 9 9
4 3 3 2 2 3 5 6 5 4 3 1 2 3 3 3 2 1 2 3 3 4 4 4 4 5 6 6 7 7 7 6 6 6 5 5 4 3 2 3 3 4 8 8
1 2 2 3 4 3 5 5 4 4 2 2 3 4 5 4 3 2 2 1 2 3 3 3 4 4 5 5 5 6 6 6 6 7 8 9 6 5 4 4 3 4 6 7
2 1 3 4 5 3 4 3 3 3 3 1 1 3 5 2 4 5 5 4 3 2 3 3 3 4 3 3 4 5 6 5 5 6 8 8 6 4 3 4 4 4 3 5
2 2 1 2 3 3 1 2 3 2 2 3 4 4 5 4 6 5 5 4 3 3 2 1 1 2 1 2 2 4 5 5 5 6 6 7 8 7 7 6 5 4 3 2
4 3 2 1 2 1 2 4 2 0 1 5 3 4 5 4 3 5 6 4 3 2 2 2 1 1 1 1 2 3 4 5 5 6 6 6 8 8 9 8 7 6 4 3
2 3 3 2 1 2 2 4 4 4 4 2 2 5 4 2 1 0 1 2 1 1 2 2 2 2 3 2 2 3 4 4 4 6 5 5 6 6 6 7 6 6 5 5
1 3 4 3 1 3 2 1 2 3 1 1 3 3 4 3 4 3 3 3 1 1 1 1 1 1 2 2 2 3 4 3 4 5 5 5 6 6 6 6 5 4 4 4
1 1 5 4 3 3 2 2 3 3 2 2 3 3 3 2 2 3 3 2 2 2 2 1 1 1 1 2 1 1 3 4 3 3 5 5 5 6 6 6 6 5 4 4
2 1 4 4 2 1 2 2 2 2 2 3 3 4 2 2 1 1 1 2 2 2 2 2 2 1 1 0 0 0 1 1 2 2 3 4 5 5 6 6 6 6 5 5
2 2 2 3 3 1 1 1 3 2 2 2 2 4 3 2 1 1 2 3 3 3 3 3 3 2 2 1 1 0 0 1 1 2 2 3 4 5 6 6 5 6 6 5
2 3 2 5 4 4 2 1 1 2 2 2 2 4 4 3 4 3 3 3 4 3 4 4 4 3 3 2 2 1 1 1 1 1 2 2 4 5 6 6 6 6 6 5
3 2 3 5 5 3 3 3 1 2 2 2 4 4 5 5 4 4 4 4 3 3 3 4 4 4 4 4 3 2 2 1 0 0 1 2 4 5 6 6 6 6 6 6
4 1 2 5 6 3 3 4 3 4 4 4 4 4 5 4 3 3 3 4 4 4 4 3 4 4 4 4 4 3 2 1 0 0 1 1 2 3 4 5 6 5 5 5
3 1 2 3 3 2 3 4 3 3 2 3 3 4 4 3 3 3 4 3 3 4 4 4 4 4 4 4 4 4 3 2 0 1 1 1 2 4 4 5 6 6 5 5
1 1 2 3 5 4 2 4 2 1 1 2 3 4 4 4 5 4 4 3 4 4 5 5 4 4 4 4 3 3 3 2 0 1 1 1 3 4 4 5 6 6 5 5
2 1 1 1 4 2 4 2 1 1 1 1 1 3 4 5 6 4 2 1 4 6 6 5 5 5 4 4 3 3 2 1 1 1 1 1 2 3 4 5 6 5 5 5
3 3 1 1 1 5 4 2 1 2 2 2 3 4 5 5 4 3 2 3 4 5 6 5 5 5 4 3 2 2 2 1 1 1 1 1 2 3 5 5 5 5 5 4
3 3 3 2 1 4 4 4 4 1 3 3 3 4 4 3 2 4 5 6 6 6 5 5 4 4 3 3 1 1 1 1 0 0 0 0 2 3 5 5 5 4 5 4
2 2 1 2 3 6 5 6 2 2 4 4 3 4 3 2 4 5 5 5 5 5 6 5 4 3 3 2 1 1 0 1 1 0 1 1 2 3 4 5 4 5 5 5
3 2 2 3 3 6 3 1 1 4 3 3 4 4 3 4 4 4 4 5 5 5 6 5 4 3 3 2 1 1 1 1 0 2 2 2 2 3 4 5 5 5 6 6
4 5 4 6 6 4 2 3 3 2 3 4 3 4 3 3 3 4 4 4 4 4 5 4 3 3 3 3 1 1 1 1 1 3 3 3 3 3 4 5 5 5 5 4
3 2 3 4 6 5 4 3 3 3 4 5 4 4 3 3 3 4 4 4 4 4 4 4 3 3 4 3 2 1 1 1 3 3 3 3 4 4 4 4 4 4 4 4
5 3 2 5 6 5 4 4 4 4 4 4 3 3 3 2 3 3 3 3 3 4 4 3 2 3 3 3 2 1 1 2 3 3 3 3 4 4 4 3 3 3 2 3
4 5 5 6 5 4 5 5 4 4 4 4 3 2 2 2 2 2 2 3 3 3 3 3 3 3 3 3 3 2 1 3 4 3 3 3 3 3 3 4 4 5 4 6
Wind_Direction
139 131 196 209 208 217 203 198 222 242 234 195 215 233 238 231 183 181 188 198 202 211 227 194 172 161 152 147 147 151 152 155 150 152 155 153 158 155 147 140 146 145 143 141
113 224 231 197 203 228 222 211 238 272 277 230 221 239 244 220 211 194 188 204 216 227 241 191 165 156 161 163 162 160 160 162 164 166 166 156 146 150 151 138 138 144 143 143
188 230 216 198 225 232 243 213 222 250 309 280 160 268 253 254 252 243 195 188 195 197 203 195 174 172 168 170 172 173 172 167 164 151 138 123 99 91 113 147 158 150 148 147
230 259 192 192 219 208 245 229 230 240 243 246 166 225 255 229 238 248 249 210 203 208 191 185 175 179 184 185 179 173 171 166 161 154 158 158 164 168 181 174 168 152 150 150
252 225 192 213 240 220 236 243 231 238 204 242 194 180 270 211 216 230 228 213 199 197 181 176 178 178 180 179 179 177 172 168 164 168 169 167 168 163 149 146 150 155 150 153
292 297 220 235 259 213 213 41 35 34 86 234 220 185 252 220 210 214 222 219 205 195 181 163 172 141 129 134 157 172 175 178 173 173 175 174 169 158 154 159 166 167 164 164
346 330 330 25 40 44 93 109 89 50 217 243 201 186 239 236 216 205 206 214 205 183 174 154 136 143 159 160 165 170 180 188 183 177 181 181 176 171 173 174 176 171 169 177
25 309 315 348 194 197 184 146 159 181 203 256 195 214 242 272 271 162 153 181 157 173 187 182 190 192 197 195 186 185 192 196 188 184 187 182 176 175 179 179 177 180 185 185
49 290 318 335 339 134 135 178 181 145 144 190 235 275 298 3 17 23 41 51 32 305 252 236 227 216 209 203 205 199 195 198 197 189 183 181 177 174 175 174 174 178 177 170
150 281 309 324 19 32 129 143 98 119 155 220 247 247 246 293 323 358 6 4 345 356 358 2 335 273 241 224 229 195 187 192 201 192 189 186 183 179 171 165 170 171 169 163
69 118 321 1 26 337 40 84 95 132 171 176 218 259 273 249 253 254 315 338 350 355 351 342 330 320 301 310 217 126 142 169 190 194 194 184 181 176 167 169 173 169 162 161
17 104 311 294 294 314 122 158 142 160 245 203 187 268 336 340 10 50 21 10 3 4 356 356 358 10 15 4 342 258 228 194 211 204 194 191 179 170 169 171 168 159 161 162
39 86 16 348 342 3 28 334 173 156 141 180 188 264 349 23 28 31 25 8 8 14 11 10 15 11 359 340 315 289 262 251 242 184 186 185 178 173 174 171 162 156 154 151
52 95 168 210 244 260 275 284 242 158 186 224 226 254 309 339 360 359 358 353 356 8 15 11 2 354 346 341 320 298 287 278 272 183 185 188 186 178 173 162 154 153 151 148
57 91 248 259 264 249 267 275 251 211 208 210 245 258 286 303 307 322 337 341 356 357 354 354 348 341 339 340 336 325 309 303 302 165 177 201 176 158 153 148 146 144 143 144
44 67 325 306 303 309 301 295 271 243 228 219 254 278 307 319 345 339 333 335 334 332 331 332 331 330 327 324 324 329 327 315 319 136 172 157 142 143 146 146 141 137 136 135
22 73 21 301 322 360 312 285 261 230 231 197 230 264 321 326 316 301 299 315 320 312 316 319 316 311 311 311 314 316 316 327 29 114 138 130 136 146 149 144 139 141 141 133
159 120 136 316 10 272 245 267 256 216 324 322 269 302 305 297 298 296 291 308 315 318 317 317 317 314 313 313 321 327 333 8 54 89 104 125 131 148 145 139 139 141 140 138
160 148 130 126 279 281 294 313 322 247 273 314 299 314 322 328 334 317 327 332 317 315 315 310 310 307 312 316 320 346 356 32 68 104 123 151 142 147 145 144 145 142 136 132
68 98 126 138 197 244 263 298 303 213 279 316 326 308 313 348 333 291 322 334 332 332 328 324 326 327 328 321 329 34 0 43 74 174 189 150 140 142 147 148 143 134 134 137
32 53 151 186 226 265 278 302 335 168 260 304 303 295 288 260 248 281 312 326 328 331 332 336 339 338 329 326 15 69 64 313 282 123 102 82 110 128 138 136 133 134 131 127
182 178 198 171 211 258 302 20 177 239 281 287 285 282 285 281 291 303 315 324 334 338 339 341 348 346 346 355 60 71 0 319 55 107 101 88 92 113 120 124 126 129 131 129
203 198 199 199 219 249 239 216 246 256 271 280 282 290 285 291 297 311 315 322 326 330 335 340 352 357 355 360 32 82 336 13 93 96 97 92 93 99 111 117 125 129 132 136
273 207 199 254 263 263 261 260 279 274 265 276 275 275 274 271 282 301 308 317 326 334 340 347 2 5 355 351 354 359 28 92 106 103 98 99 103 100 101 110 118 128 136 139
240 200 217 255 275 298 278 263 279 289 299 295 290 268 251 245 274 286 300 313 322 330 339 352 0 353 348 355 353 338 87 117 110 104 103 103 104 105 103 103 106 115 123 138
208 195 200 236 233 221 254 260 269 278 290 287 282 291 278 241 256 281 295 304 313 323 339 353 2 2 356 2 5 3 58 112 116 113 110 113 113 110 108 109 94 77 92 89
Height
1475 1479 1480 1480 1480 1480 1481 1481 1483 1480 1477 1479 1480 1480 1479 1478 1479 1481 1482 1482 1484 1486 1488 1490 1492 1494 1496 1498 1500 1501 1504 1506 1508 1510 1512 1514 1516 1518 1521 1523 1524 1526 1527 1528
1479 1479 1477 1478 1479 1480 1481 1482 1483 1481 1478 1478 1480 1480 1479 1478 1479 1479 1480 1481 1482 1484 1486 1488 1489 1491 1493 1495 1497 1499 1501 1503 1505 1508 1510 1512 1514 1516 1518 1520 1522 1524 1525 1526
1479 1479 1477 1477 1479 1480 1480 1482 1482 1482 1479 1477 1480 1483 1481 1479 1478 1478 1479 1480 1481 1482 1483 1485 1487 1488 1490 1492 1495 1497 1499 1501 1503 1505 1508 1510 1512 1514 1516 1517 1519 1521 1523 1524
1479 1477 1477 1477 1478 1479 1480 1478 1478 1480 1484 1486 1483 1489 1482 1479 1478 1478 1478 1478 1479 1481 1482 1483 1484 1486 1488 1490 1493 1495 1497 1498 1500 1502 1504 1506 1508 1510 1512 1514 1517 1519 1520 1522
1480 1477 1477 1478 1477 1477 1478 1476 1477 1479 1483 1487 1485 1490 1485 1479 1479 1478 1477 1477 1478 1479 1480 1481 1482 1483 1486 1488 1490 1492 1494 1496 1498 1500 1502 1504 1506 1508 1510 1512 1514 1516 1518 1519
1479 1477 1477 1477 1476 1476 1476 1477 1479 1482 1486 1491 1485 1488 1485 1480 1475 1474 1475 1475 1476 1477 1478 1479 1480 1482 1483 1485 1487 1489 1491 1493 1495 1497 1499 1501 1503 1505 1507 1509 1511 1513 1515 1516
1484 1480 1478 1477 1478 1477 1479 1485 1491 1493 1493 1490 1482 1484 1482 1474 1472 1471 1472 1473 1474 1475 1476 1477 1478 1479 1480 1482 1484 1486 1488 1490 1492 1494 1496 1498 1500 1502 1504 1506 1508 1509 1511 1513
1491 1488 1481 1478 1479 1480 1481 1484 1492 1495 1493 1489 1483 1483 1479 1473 1471 1470 1470 1471 1472 1473 1474 1475 1476 1477 1478 1479 1481 1483 1485 1487 1489 1491 1493 1495 1497 1499 1501 1503 1505 1506 1508 1510
1495 1491 1482 1479 1478 1479 1482 1484 1485 1491 1494 1492 1485 1481 1476 1472 1471 1470 1470 1470 1471 1471 1472 1473 1474 1475 1476 1477 1478 1480 1481 1483 1486 1488 1490 1492 1494 1496 1498 1500 1502 1504 1506 1508
1493 1494 1487 1482 1479 1480 1482 1483 1488 1492 1493 1490 1485 1482 1480 1475 1473 1472 1471 1470 1470 1470 1471 1471 1471 1472 1473 1474 1476 1477 1479 1480 1482 1484 1487 1489 1491 1493 1495 1497 1498 1501 1503 1504
1492 1497 1493 1488 1487 1487 1486 1486 1488 1491 1491 1492 1489 1485 1475 1474 1474 1473 1472 1471 1470 1470 1469 1469 1470 1470 1472 1472 1473 1474 1476 1477 1479 1481 1483 1485 1487 1490 1492 1494 1496 1498 1500 1501
1494 1499 1500 1495 1490 1488 1487 1487 1489 1493 1494 1493 1493 1488 1475 1474 1474 1473 1473 1472 1471 1471 1470 1469 1469 1469 1470 1470 1471 1472 1473 1475 1476 1478 1480 1482 1484 1486 1488 1490 1492 1495 1496 1498
1495 1500 1504 1498 1496 1492 1491 1489 1490 1491 1494 1495 1492 1487 1476 1475 1475 1474 1474 1473 1472 1471 1470 1469 1468 1468 1469 1469 1470 1470 1471 1472 1473 1475 1477 1478 1480 1482 1484 1487 1489 1492 1494 1495
1494 1501 1504 1502 1497 1496 1494 1491 1490 1491 1494 1493 1488 1483 1479 1478 1477 1476 1475 1473 1472 1471 1470 1469 1468 1468 1468 1468 1468 1468 1469 1470 1471 1472 1473 1475 1477 1479 1481 1484 1486 1489 1491 1493
1497 1502 1501 1497 1493 1493 1492 1491 1489 1489 1489 1490 1485 1483 1481 1480 1479 1477 1476 1474 1472 1471 1470 1469 1468 1467 1467 1466 1466 1467 1467 1468 1469 1469 1470 1472 1474 1476 1479 1481 1483 1486 1488 1490
1500 1503 1501 1497 1490 1490 1490 1489 1487 1487 1487 1487 1485 1485 1482 1480 1479 1477 1476 1474 1473 1471 1470 1468 1467 1466 1465 1465 1464 1464 1465 1465 1466 1467 1468 1469 1471 1474 1476 1478 1481 1484 1486 1488
1502 1504 1504 1501 1495 1491 1494 1491 1489 1488 1487 1486 1485 1485 1482 1480 1479 1477 1475 1474 1473 1471 1470 1468 1466 1465 1464 1464 1463 1463 1463 1463 1464 1465 1466 1467 1469 1472 1474 1476 1479 1482 1484 1486
1503 1504 1506 1505 1503 1502 1495 1490 1488 1487 1487 1486 1484 1483 1482 1480 1478 1476 1475 1474 1472 1470 1468 1466 1465 1464 1463 1462 1462 1461 1461 1462 1462 1463 1464 1466 1467 1470 1472 1474 1477 1479 1482 1484
1499 1503 1507 1509 1508 1501 1492 1489 1489 1488 1487 1486 1484 1482 1481 1479 1476 1475 1474 1473 1472 1470 1468 1466 1464 1462 1460 1460 1459 1459 1459 1459 1460 1461 1462 1464 1466 1468 1470 1472 1475 1477 1480 1482
1500 1503 1508 1510 1507 1502 1493 1489 1487 1489 1488 1485 1483 1482 1480 1479 1479 1475 1473 1471 1470 1468 1466 1464 1462 1460 1458 1457 1457 1457 1457 1458 1458 1460 1461 1462 1464 1466 1468 1470 1473 1475 1477 1479
1506 1508 1510 1510 1509 1500 1492 1488 1487 1492 1489 1484 1482 1481 1479 1479 1478 1475 1472 1470 1468 1467 1464 1462 1460 1458 1457 1456 1455 1455 1455 1456 1457 1458 1460 1461 1463 1464 1466 1469 1471 1473 1475 1477
1506 1509 1510 1510 1508 1501 1489 1487 1489 1488 1484 1483 1481 1479 1478 1476 1474 1472 1471 1469 1467 1465 1463 1461 1458 1457 1456 1455 1454 1454 1454 1455 1456 1457 1459 1460 1461 1463 1465 1467 1469 1472 1473 1475
1502 1501 1501 1501 1496 1489 1486 1485 1485 1484 1482 1481 1479 1477 1476 1474 1472 1470 1469 1467 1466 1464 1462 1460 1458 1456 1455 1454 1454 1453 1454 1454 1455 1456 1458 1459 1460 1462 1464 1466 1468 1470 1472 1473
1497 1495 1496 1494 1488 1485 1484 1483 1482 1481 1480 1478 1477 1476 1474 1472 1471 1469 1467 1466 1464 1462 1461 1459 1457 1455 1454 1454 1454 1454 1453 1454 1455 1456 1457 1458 1459 1461 1463 1465 1467 1469 1470 1472
1493 1493 1493 1490 1485 1483 1481 1480 1480 1479 1477 1476 1475 1473 1472 1471 1469 1468 1466 1465 1463 1462 1460 1458 1457 1455 1454 1454 1454 1454 1454 1454 1455 1455 1457 1458 1459 1461 1463 1465 1467 1468 1470 1471
1487 1488 1489 1485 1481 1481 1479 1478 1477 1476 1475 1474 1472 1471 1470 1469 1468 1467 1465 1464 1462 1461 1459 1457 1456 1455 1454 1453 1453 1453 1453 1454 1454 1455 1456 1458 1459 1461 1463 1465 1466 1468 1469 1471